Regional Weather Roundup
Issued by NWS

Home | Current Version | Previous Version | Graphics & Text | Print | Product List | Glossary On
Versions: 1 2 3 4 5 6 7 8 9 10 11 12 13 14 15 16 17 18 19 20 21 22 23 24 25 26 27 28 29 30 31 32 33 34 35 36 37 38 39 40 41 42 43 44 45 46 47 48 49 50
000
ASUS43 KLOT 301807
RWRIL

ILLINOIS REGIONAL WEATHER ROUNDUP
NATIONAL WEATHER SERVICE CHICAGO/ROMEOVILLE IL
100 PM CDT FRI SEP 30 2016

NOTE: "FAIR" INDICATES FEW OR NO CLOUDS BELOW 12,000 FEET WITH NO
SIGNIFICANT WEATHER AND/OR OBSTRUCTIONS TO VISIBILITY.

* THESE STATIONS ARE NOT UNDER NWS QUALITY CONTROL. THEY ALSO MAY NOT
  REPORT WEATHER SUCH AS PRECIPITATION OR FOG.

ILZ001-002-007-009-015-016-024-301900-
NORTHWEST ILLINOIS

CITY           SKY/WX    TMP DP  RH WIND       PRES   REMARKS
MOLINE         CLOUDY    65  56  72 NE9       30.17F
6HR MIN TEMP:  59; 6HR MAX TEMP:  65; 6HR PCP: TRACE;

STERLING*      CLOUDY    66  59  78 NE9       30.15F
SAVANNA*       CLOUDY    65  57  75 N12       30.17F
$$

ILZ003-004-008-010-011-017-018-301900-
NORTH CENTRAL ILLINOIS

CITY           SKY/WX    TMP DP  RH WIND       PRES   REMARKS
ROCKFORD       LGT RAIN  66  58  75 NE18      30.18R
6HR MIN TEMP:  60; 6HR MAX TEMP:  69; 6HR PCP: TRACE;

FREEPORT*      CLOUDY    62  57  84 N7        30.19S
ROCHELLE*      CLOUDY    66  59  79 NE12      30.14F
DE KALB*       CLOUDY    65  60  83 NE15      30.14F
$$

ILZ005-006-012>014-019>023-301900-
NORTHEAST ILLINOIS

CITY           SKY/WX    TMP DP  RH WIND       PRES   REMARKS
CHICAGO-OHARE  CLOUDY    64  59  83 NE12      30.12F
6HR MIN TEMP:  60; 6HR MAX TEMP:  64; 6HR PCP:  0.02;

CHICAGO-MIDWAY CLOUDY    65  59  81 NE18      30.11F
6HR MIN TEMP:  63; 6HR MAX TEMP:  66; 6HR PCP:  0.09;

AURORA         CLOUDY    65  61  87 NE13      30.13F FOG
6HR MIN TEMP:  61; 6HR MAX TEMP:  66;

LANSING*       CLOUDY    63  61  93 NE13      30.10F
JOLIET*        CLOUDY    66  62  85 NE10      30.10F
WAUKEGAN       CLOUDY    64  61  90 NE14G21   30.14F
6HR MIN TEMP:  61; 6HR MAX TEMP:  64; 6HR PCP:  0.13;

DUPAGE AIRPORT CLOUDY    63  59  87 NE12      30.12F
6HR MIN TEMP:  60; 6HR MAX TEMP:  64; 6HR PCP:  0.01;

KANKAKEE*      CLOUDY    65  61  85 NE7G16    30.08F
WHEELING       CLOUDY    64  60  87 E12G20    30.14F
6HR MIN TEMP:  61; 6HR MAX TEMP:  64; 6HR PCP:  0.09;

MORRIS*        CLOUDY    65  61  85 NE6       30.09F
ROMEOVILLE*    CLOUDY    64  63  96 NE13      30.11F
NORTHERLY ISL    N/A     63  58  83 NE10        N/A
$$

LMZ740>746-301900-
SOUTHERN LAKE MICHIGAN

STATION/POSITION SKY/WX   TEMP    WIND        PRES    VSBY  WAVE
                          AIR SEA DIR/SP/G                  HT/PER
                          (F)     (DEG/KT/KT) (MB)    (MI)  (FT/S)
SOUTHERN BUOY              63 67   60/ 19/ 23 1020.1F         5/ 6
WILMETTE HARBOR            62 58   70/ 12/ 17   N/A           6/ 6
HARRISON CRIB              64      40/ 19/ 21   N/A
BURNHAM HARBOR             63      30/ 10/ 15   N/A
CALUMET HARBOR             63      30/ 11/ 14 1019.1F
BURNS HARBOR               64      50/ 16/ 19 1019.3F
MICHIGAN CITY              62      20/ 13/ 14   N/A
MICHIGAN CITY 6N           63 64   30/ 12/ 16   N/A           6/ 7
ST. JOSEPH                 56 52   10/ 10/ 14 1019.3          4/ 6
$$

ILZ025>027-034>036-040-047-049-050-058-095>099-301900-
WEST-CENTRAL ILLINOIS

CITY           SKY/WX    TMP DP  RH WIND       PRES   REMARKS
QUINCY         CLOUDY    64  56  75 N14       30.15F
GALESBURG*     CLOUDY    63  58  85 N13       30.16S
MACOMB*        CLOUDY    64  57  78 N12       30.17F
JACKSONVILLE*  DRIZZLE   64  59  86 NW12      30.12F
PITTSFIELD*    CLOUDY    64  58  82 N10G16    30.15S
$$

ILZ028>032-037-038-041>044-048-051>054-059>061-301900-
CENTRAL ILLINOIS

CITY           SKY/WX    TMP DP  RH WIND       PRES   REMARKS
PONTIAC        CLOUDY    68  64  89 NE15      30.09F
BLOOMINGTON    CLOUDY    63  61  93 N13       30.09F
DECATUR        CLOUDY    64  60  87 N9        30.07F
PEORIA         CLOUDY    62  62 100 N6        30.12F
6HR MIN TEMP:  59; 6HR MAX TEMP:  62; 6HR PCP:  0.03;

LACON*         CLOUDY    63  60  91 N6        30.11F
LINCOLN*       LGT RAIN  64  62  92 NW6       30.09F
SPRINGFIELD    CLOUDY    65  60  84 N9        30.10F
6HR MIN TEMP:  60; 6HR MAX TEMP:  66; 6HR PCP:  0.02;

TAYLORVILLE    LGT RAIN  63  60  90 CALM      30.08F
6HR MIN TEMP:  58; 6HR MAX TEMP:  64; 6HR PCP:  0.05;

$$

ILZ033-039-045-046-055>057-062-063-301900-
EAST-CENTRAL ILLINOIS

CITY           SKY/WX    TMP DP  RH WIND       PRES   REMARKS
CHAMPAIGN      CLOUDY    65  58  78 N9        30.06F
RANTOUL*       CLOUDY    66  62  86 NE14      30.06F
MATTOON        CLOUDY    64  59  83 N15       30.04F
PARIS*         CLOUDY    65  61  86 CALM      30.04F
$$

ILZ079-100>102-301900-
SOUTHWEST ILLINOIS

CITY           SKY/WX    TMP DP  RH WIND       PRES   REMARKS
ALTON          CLOUDY    64  57  77 N12       30.09F
BELLEVILLE     MOSUNNY   68  60  77 VRB5G22   30.07F
CAHOKIA*       LGT RAIN  66  58  75 N8        30.09F
SPARTA*        CLOUDY    64  58  80 N12G18    30.09S
$$

ILZ064>066-069>071-074>076-080>082-084>086-088>090-092>094-301900-
SOUTH-CENTRAL ILLINOIS

CITY           SKY/WX    TMP DP  RH WIND       PRES   REMARKS
CARBONDALE     LGT RAIN  65  62  90 N9        30.06F
6HR MIN TEMP:  59; 6HR MAX TEMP:  66; 6HR PCP:  0.05;

CAIRO*         LGT RAIN  64  60  87 NW7       30.07F
EFFINGHAM*     CLOUDY    66  63  89 NW6       30.06F
MARION         CLOUDY    64  63  94 NW12      30.06F
MT. VERNON     CLOUDY    66  57  72 N7        30.06S
CENTRALIA*     CLOUDY    65  61  86 N7        30.06F
SALEM*         LGT RAIN  64  60  86 N5        30.07S
METROPOLIS*    CLOUDY    63  60  91 W10       30.06F
$$

ILZ067-068-072-073-078-083-087-091-301900-
SOUTHEAST ILLINOIS

CITY           SKY/WX    TMP DP  RH WIND       PRES   REMARKS
LAWRENCEVILLE  CLOUDY    67  56  67 E6        30.03F
FLORA*         LGT RAIN  66  61  84 NW7       30.04F
FAIRFIELD*     CLOUDY    66  59  78 CALM      30.02F
HARRISBURG*    CLOUDY    65  61  86 NW7       30.04F
ROBINSON*      PTSUNNY   66  58  73 N6        30.03F
CARMI*         CLOUDY    67  58  73 N3        30.02S
$$

ABBREVIATIONS USED IN REMARKS
   TC - TEMPERATURE IN CELSIUS
  WCI - WIND CHILL INDEX
   HX - HEAT INDEX
  VSB - VISIBILITY
$$




USA.gov is the U.S. government's official web portal to all federal, state and local government web resources and services.